Theta_e
352 352 352 353 353 353 352 349 348 353 351 350 351 348 349 349 347 345 344 342 338 336 334 335 335 334 334 335 334 333 333 331 328 331 330 331 331 331 332 332 331 331 331
352 352 352 352 352 353 353 350 351 353 352 350 349 347 347 348 347 346 345 344 340 338 333 333 336 337 335 335 336 334 333 333 332 331 331 331 331 330 330 329 329 329 330
351 353 353 352 352 351 352 352 353 354 354 351 349 348 347 347 346 346 345 345 343 338 335 333 335 337 337 336 336 335 333 333 332 332 332 332 332 330 329 326 329 330 328
351 353 353 353 353 352 351 351 352 355 356 356 353 352 349 347 346 346 346 346 345 341 335 334 333 336 337 337 336 336 334 333 334 334 333 332 331 330 326 326 327 327 327
352 353 353 354 354 353 353 351 350 353 355 356 356 353 351 350 349 347 347 347 346 344 338 337 335 335 337 337 337 335 333 335 335 334 333 332 331 330 326 327 327 328 328
354 354 354 354 355 356 355 354 353 351 352 353 353 354 352 351 351 351 349 347 346 345 341 340 338 336 336 339 338 337 337 334 335 334 333 331 332 329 326 327 327 326 325
355 355 356 356 356 357 357 357 357 355 354 353 353 352 352 352 352 352 350 348 346 344 342 340 340 339 337 337 339 339 338 336 336 336 334 332 330 328 327 327 327 325 325
356 357 357 357 357 357 358 358 359 358 357 355 353 353 352 352 352 352 351 348 344 344 343 342 342 340 338 336 339 339 338 335 337 335 332 331 330 328 327 327 328 327 326
355 357 359 359 359 359 359 359 359 360 359 357 354 353 353 353 354 353 350 346 346 346 346 345 343 340 337 337 340 339 338 336 334 332 328 331 330 328 329 328 327 325 322
355 356 357 359 360 360 360 360 360 360 359 357 355 354 356 357 357 356 350 347 347 346 345 344 342 340 341 341 340 339 337 336 335 330 331 328 329 328 326 322 320 320 320
351 355 357 358 360 360 361 361 361 361 360 358 355 355 357 358 358 356 349 349 349 347 345 342 341 341 340 339 337 335 335 334 333 332 330 328 327 325 319 319 316 315 316
350 351 354 357 359 360 360 361 361 361 360 358 355 353 353 355 356 355 352 346 347 345 342 339 338 338 338 336 336 336 335 333 332 329 327 326 321 318 319 317 314 313 312
347 349 350 352 357 359 360 361 362 362 360 356 353 349 348 349 351 353 352 348 344 343 339 338 338 338 338 337 337 335 331 331 329 328 325 321 318 319 318 315 314 312 310
346 346 348 350 354 358 360 361 362 361 358 354 350 346 344 344 347 347 345 344 342 341 339 339 339 338 336 333 333 331 330 330 329 326 323 318 318 319 319 314 312 309 308
351 349 350 352 355 352 338 342 352 353 356 349 346 344 344 340 335 341 341 342 341 339 339 337 335 333 332 329 328 329 329 328 326 324 320 318 319 319 316 312 309 308 306
361 359 356 346 338 335 336 335 340 344 345 343 339 337 333 335 336 343 343 342 341 338 335 332 331 330 328 326 325 324 325 325 324 322 320 319 319 318 313 310 307 305 304
343 339 337 336 335 337 340 336 330 333 333 333 337 335 333 342 343 343 341 340 338 333 332 331 330 327 325 325 324 324 324 323 322 321 320 320 316 312 309 307 305 304 304
341 339 338 336 336 336 335 333 333 333 332 331 336 342 341 341 341 338 334 332 328 329 328 328 327 327 327 326 325 323 324 324 323 322 317 311 309 307 306 304 304 304 303
340 338 338 338 336 336 335 332 332 330 327 325 326 335 338 336 330 328 328 327 327 325 325 325 323 321 320 321 321 320 320 318 315 311 309 307 306 305 304 303 304 303 304
339 340 338 333 332 332 331 330 327 325 324 325 327 327 328 325 322 322 324 325 325 324 321 318 319 320 320 319 316 314 313 311 310 308 306 306 304 303 304 304 304 304 303
339 337 336 334 333 331 330 327 325 324 324 325 327 330 328 326 324 323 322 321 319 319 316 316 315 315 314 314 313 312 310 308 306 305 306 304 303 303 304 304 304 303 302
338 339 337 335 333 332 331 329 328 326 325 325 325 325 325 325 324 323 320 317 316 316 315 314 313 313 313 312 311 308 305 305 305 305 304 303 303 303 304 304 303 302 302
336 337 336 335 335 335 332 329 327 327 325 324 324 324 324 324 323 321 317 316 314 315 314 313 313 313 312 311 311 309 306 305 304 304 303 303 302 302 303 303 302 301 302
330 330 331 331 333 332 331 329 326 324 323 323 322 320 321 321 320 319 316 316 316 315 313 313 314 313 312 310 309 307 305 303 303 303 302 302 299 299 303 302 301 301 302
325 326 326 325 327 329 329 330 329 327 325 325 323 322 322 322 320 319 317 316 317 316 314 313 314 313 312 310 309 307 304 302 302 302 302 301 300 297 301 302 301 302 302
327 327 325 325 326 325 328 328 327 326 327 325 324 321 321 321 321 320 318 319 319 318 315 314 314 314 313 311 309 307 305 302 301 301 301 300 298 295 301 302 302 301 302
Wind_Speed
42 41 38 38 41 42 45 42 40 35 35 33 35 35 35 35 33 30 29 25 23 20 19 18 16 14 13 13 11 10 11 10 7 5 8 6 5 5 9 12 14 15 16
40 40 41 41 41 42 45 45 43 40 36 37 36 37 36 37 37 35 33 30 28 26 23 22 21 17 16 14 13 11 10 10 9 10 8 8 8 7 9 14 15 16 15
40 40 37 38 39 43 44 43 45 43 44 40 39 41 41 40 39 38 37 34 31 30 27 25 23 21 20 18 18 17 15 14 13 11 9 8 10 10 10 17 15 8 8
39 41 41 40 42 44 46 43 42 45 44 45 45 44 43 43 42 41 41 39 36 33 32 29 27 25 24 20 19 19 17 16 15 13 12 12 11 9 10 14 18 19 20
38 39 43 41 41 42 41 42 44 41 41 45 45 44 43 43 45 45 44 43 39 37 36 33 29 27 25 23 23 22 19 18 17 16 17 16 16 14 12 14 15 15 17
39 43 40 40 40 41 40 39 39 40 41 40 45 46 45 45 45 43 42 43 42 40 39 34 30 29 27 27 25 25 22 23 22 21 21 21 23 15 12 14 13 13 6
42 39 38 39 40 40 38 36 39 40 38 41 43 44 47 47 44 42 41 41 39 39 34 31 30 32 28 25 23 25 24 22 24 23 24 22 17 15 14 17 14 12 16
37 36 35 37 38 38 38 39 37 37 38 38 40 45 43 45 44 42 40 37 27 31 29 30 29 32 29 25 22 20 21 22 24 18 13 12 16 17 21 18 16 16 16
32 34 36 39 39 38 38 40 38 35 34 37 36 37 40 39 39 38 36 31 28 26 27 23 24 29 24 20 19 18 18 19 13 10 13 17 16 19 17 15 16 12 10
33 37 40 40 40 40 42 39 38 37 38 34 33 38 40 40 37 35 33 31 27 24 22 20 22 23 19 17 18 17 17 16 13 13 15 17 14 13 12 14 14 15 13
37 35 32 36 39 40 36 34 36 37 34 32 32 36 41 40 36 34 32 30 22 25 27 27 24 20 17 14 12 12 13 14 13 14 12 9 11 11 10 8 4 7 10
34 33 36 36 34 31 33 31 33 32 33 32 32 26 31 36 33 29 32 22 23 25 26 22 18 15 16 13 12 12 11 11 11 10 9 9 7 4 4 7 7 8 10
32 34 37 38 38 38 38 39 37 39 33 28 26 25 25 30 30 26 31 27 27 29 23 15 10 9 9 10 12 12 12 12 12 11 10 7 5 5 7 7 9 9 12
22 23 22 25 27 26 27 32 30 31 29 25 26 22 20 21 16 21 26 27 24 21 17 12 10 9 9 8 12 13 13 13 13 11 7 6 6 6 10 8 10 12 13
19 19 21 22 21 19 16 3 9 11 21 23 26 29 31 26 27 30 23 20 22 23 18 15 15 12 12 11 9 10 12 13 13 10 8 8 8 8 10 9 10 11 10
11 11 11 17 19 24 28 32 36 17 26 16 13 25 35 24 33 36 27 27 25 21 23 19 14 15 15 13 13 11 11 12 12 11 10 10 11 10 10 10 10 9 10
20 20 19 16 15 14 20 26 20 17 10 17 14 16 18 29 26 23 23 23 23 27 22 19 21 18 14 13 11 10 11 11 10 10 11 10 9 9 8 9 6 8 10
20 22 21 17 16 18 21 7 19 23 23 24 28 27 21 23 25 24 28 27 28 20 22 22 17 15 13 11 10 10 11 11 10 9 9 9 7 7 7 5 5 7 11
19 19 22 16 22 19 24 12 15 17 19 27 27 31 32 29 26 27 31 31 28 22 19 16 14 13 11 11 11 11 11 11 12 11 8 7 5 5 4 3 5 8 11
26 25 25 14 23 19 22 25 23 24 25 25 27 34 34 34 33 28 22 23 22 19 16 14 14 13 14 16 15 14 13 12 10 9 9 8 7 6 3 3 5 8 10
26 25 27 19 19 17 21 18 20 18 17 19 27 33 34 34 30 25 22 20 19 21 23 21 19 17 16 15 14 13 11 11 11 11 11 12 9 5 3 3 4 7 8
22 24 24 24 22 21 18 21 22 23 23 25 28 30 29 22 26 25 23 22 22 21 20 16 18 16 11 12 14 13 12 13 12 14 15 12 8 5 3 3 5 6 9
16 17 15 16 18 21 13 15 19 20 23 25 27 27 26 23 26 26 23 23 23 20 18 19 17 13 11 12 12 12 13 12 12 15 14 10 6 6 4 3 4 7 10
22 23 19 13 12 14 16 14 15 16 16 17 19 21 26 23 23 22 20 22 21 20 20 19 15 10 9 9 10 11 10 9 15 14 10 6 5 7 5 4 4 5 7
11 13 14 12 11 9 8 12 14 18 20 20 21 24 25 24 21 20 20 21 21 20 23 21 16 12 10 8 8 9 9 11 12 12 9 7 6 7 7 5 3 4 5
7 9 12 15 12 5 2 2 3 4 13 17 20 20 24 25 25 25 24 23 24 25 25 24 21 18 14 12 10 8 6 11 13 12 10 9 9 10 10 6 4 2 3
Wind_Direction
201 202 205 206 211 215 223 226 225 227 226 222 217 218 221 219 220 221 224 226 226 225 225 223 224 228 227 223 226 228 222 216 208 250 246 238 249 256 249 282 281 280 271
203 202 202 205 207 212 220 224 225 221 221 217 218 219 223 221 222 223 226 227 227 226 226 227 231 231 230 232 236 232 226 222 234 249 268 273 281 286 293 296 294 285 280
200 200 204 204 205 211 217 218 224 224 222 220 221 222 223 224 226 227 228 230 231 233 232 229 231 228 235 238 241 242 245 247 242 241 254 262 278 292 311 318 310 272 283
199 198 201 204 206 211 216 217 217 223 223 223 223 225 225 226 229 231 231 231 233 236 237 236 237 233 236 235 237 245 250 241 246 248 254 262 269 269 297 306 297 292 294
198 202 205 203 207 211 213 214 217 218 220 225 223 224 226 227 229 231 234 234 233 237 237 237 238 240 242 242 246 248 244 241 239 248 261 268 268 270 297 315 292 298 296
199 205 204 203 205 208 210 211 213 215 218 220 223 224 223 226 229 232 235 231 235 237 238 235 238 240 241 246 245 250 250 244 243 245 254 257 266 270 292 302 277 292 309
201 204 203 202 205 208 208 208 211 212 211 215 218 219 224 227 230 235 237 237 234 235 238 243 244 245 244 246 244 245 252 256 259 260 255 262 275 285 297 295 264 275 273
199 200 200 201 207 208 204 208 211 211 210 211 213 217 220 227 232 238 240 234 229 240 244 247 245 246 243 246 247 245 245 259 258 256 260 278 283 286 291 281 276 283 287
199 201 201 200 204 204 205 207 208 209 213 213 212 210 217 224 232 235 229 217 229 241 245 249 254 246 249 250 248 252 253 261 251 239 263 270 271 277 281 279 277 280 288
202 205 203 203 204 204 206 206 206 206 212 211 210 210 223 227 229 229 217 214 224 236 248 242 247 249 245 249 251 249 253 256 255 263 253 272 270 273 270 274 279 271 279
206 207 206 207 207 208 207 206 203 205 208 207 206 206 216 220 222 220 206 210 211 227 231 222 232 239 234 225 227 254 247 269 258 251 245 252 259 268 278 276 277 280 271
203 202 202 204 207 207 202 203 204 204 204 201 202 194 199 212 214 199 197 205 213 230 236 240 239 221 225 237 247 240 256 254 242 214 236 243 263 269 265 279 278 294 287
195 200 203 204 205 199 197 197 194 195 202 203 188 178 187 200 200 208 195 191 200 216 225 216 218 207 213 228 214 216 218 216 214 222 224 244 253 259 287 280 289 292 298
195 207 214 203 203 204 205 204 203 194 191 186 181 167 157 162 183 190 216 195 204 211 206 203 192 187 188 195 188 192 204 213 220 218 230 251 258 269 283 276 289 305 309
213 212 205 196 180 152 113 139 191 183 195 180 165 150 140 151 171 230 206 198 201 199 187 173 162 178 190 180 176 185 197 202 207 216 228 250 258 266 264 272 286 296 303
102 95 128 139 131 124 113 85 74 102 121 80 46 145 148 184 176 195 193 204 200 193 173 166 178 200 190 180 172 179 194 210 218 227 234 248 259 257 258 271 289 297 310
89 89 93 99 111 123 123 120 113 134 126 133 172 197 206 191 178 168 179 193 188 170 172 170 186 192 179 180 187 202 218 226 229 232 238 242 230 237 252 278 292 314 321
113 119 114 113 111 121 100 49 120 142 156 143 168 183 175 155 140 162 169 163 163 173 164 165 166 175 185 197 218 214 205 204 210 216 195 195 211 246 255 263 311 319 325
117 122 131 137 132 140 132 141 126 140 128 129 139 147 145 138 152 166 170 168 166 159 151 159 170 178 184 181 177 177 178 168 164 174 190 188 191 202 219 279 318 329 330
118 120 124 131 128 141 136 151 152 142 138 139 138 139 142 148 158 168 171 163 160 153 154 159 151 155 164 165 161 164 166 172 187 198 195 200 189 193 227 278 320 329 328
121 133 137 146 136 138 152 152 140 138 135 138 143 156 162 164 166 165 165 161 162 160 155 150 146 159 167 173 177 181 189 189 190 192 189 184 190 203 229 266 325 340 333
124 128 138 141 146 152 155 152 151 151 154 155 164 169 170 172 169 169 169 166 160 160 163 163 172 171 176 187 184 184 185 190 194 187 179 185 192 200 221 274 319 341 342
129 137 133 132 138 133 156 161 161 165 171 175 174 173 176 179 178 176 175 174 174 175 178 181 174 175 184 189 196 201 207 216 214 192 185 186 212 222 236 299 316 336 339
101 111 114 122 162 160 160 167 172 174 171 174 182 189 187 183 183 180 182 189 190 193 192 187 187 184 174 172 194 212 221 206 195 187 190 208 232 226 235 270 306 331 333
143 149 144 131 118 125 150 182 184 188 188 181 191 200 195 193 190 194 192 199 202 199 199 198 199 206 199 187 194 217 222 206 200 198 205 215 239 237 234 248 265 332 349
149 129 138 147 142 137 228 233 66 226 215 213 203 207 201 202 204 197 198 211 213 211 209 208 207 211 212 211 208 218 237 221 213 215 223 240 249 232 219 233 236 288 335